Location: Star Dogged Moon Observatory
(29.7756°N, 82.0783°W)
Time: 20:08:03
(UTC-04:00)

ARGOS - Visible Passes

Search period start: 20 April 2014 00:00
Search period end: 30 April 2014 00:00
Orbit: 821 x 835 km, 98.8° (Epoch: 20 April)

Date Brightness Start Highest point End Pass type
(mag) Time Alt. Az. Time Alt. Az. Time Alt. Az.
20 Apr 4.7 22:47:40 28° NNE 22:47:40 28° NNE 22:50:15 10° N visible
21 Apr 4.7 22:28:57 24° NNE 22:28:57 24° NNE 22:31:33 10° N visible
22 Apr 5.9 00:10:29 13° NW 00:10:29 13° NW 00:11:08 10° NW visible
22 Apr 4.9 22:10:15 19° NE 22:10:15 19° NE 22:12:36 10° NNE visible
22 Apr 5.5 23:51:46 18° NW 23:51:46 18° NW 23:53:22 10° NNW visible
23 Apr 5.1 21:51:32 14° NE 21:51:32 14° NE 21:53:13 10° NNE visible
23 Apr 5.1 23:33:03 25° NNW 23:33:03 25° NNW 23:35:19 10° NNW visible
24 Apr 4.7 23:14:20 31° NNW 23:14:20 31° NNW 23:17:03 10° NNW visible
25 Apr 4.5 22:55:38 33° N 22:55:38 33° N 22:58:37 10° N visible
26 Apr 4.5 22:36:55 30° NNE 22:36:55 30° NNE 22:40:00 10° N visible
27 Apr 5.9 00:18:26 12° NW 00:18:26 12° NW 00:18:59 10° NW visible
27 Apr 4.6 22:18:12 24° NE 22:18:12 24° NE 22:21:10 10° NNE visible
27 Apr 5.5 23:59:44 18° NW 23:59:44 18° NW 00:01:25 10° NW visible
28 Apr 4.9 21:59:30 17° NE 21:59:30 17° NE 22:02:01 10° NNE visible
28 Apr 5.1 23:41:01 26° NW 23:41:01 26° NW 23:43:28 10° NNW visible
29 Apr 5.2 21:40:47 11° ENE 21:40:47 11° ENE 21:42:02 10° NE visible
29 Apr 4.6 23:22:18 34° NNW 23:22:18 34° NNW 23:25:18 10° NNW visible
